Location: Atherton
(17.2661°S, 145.4859°E)
Time: 22:28:48
(UTC+10:00)

BlueWalker 3 - Pass Details

Date: 20 April 2026
Orbit: 447 x 458 km, 53.2° (Epoch: 11 May)

Event Time Altitude Azimuth Distance (km) Brightness Sun altitude
Exits shadow 05:33:01 - 201° (SSW) 1,905 4.6 -13.8°
Reaches altitude 10° 05:33:51 10° 197° (SSW) 1,584 4.2 -13.6°
Maximum altitude 05:37:10 36° 128° (SE) 735 3.2 -12.8°
Drops below altitude 10° 05:40:26 10° 60° (ENE) 1,567 5.6 -12.0°
Sets 05:42:39 0° 51° (NE) 2,432 6.5 -11.5°
